"Period start","avg(HW err(1)/warn(2) (#))","avg(Visibility (m))","avg(Weather code (#))","avg(Precip intensity (mm/h))","min(HW err(1)/warn(2) (#))","max(HW err(1)/warn(2) (#))","std(HW err(1)/warn(2) (#))","med(HW err(1)/warn(2) (#))","min(Visibility (m))","max(Visibility (m))","std(Visibility (m))","med(Visibility (m))","min(Weather code (#))","max(Weather code (#))","std(Weather code (#))","med(Weather code (#))","min(Precip intensity (mm/h))","max(Precip intensity (mm/h))","std(Precip intensity (mm/h))","med(Precip intensity (mm/h))"
2016-05-16 00:00:00,2,36931,0,0.00,2,2,0,2,14031,50000,10465,36726,0,0,0,0,0.00,0.00,0.00,0.00
2016-05-16 00:10:00,2,41020,0,0.00,2,2,0,2,26013,50000,8471,42322,0,0,0,0,0.00,0.00,0.00,0.00
2016-05-16 00:20:00,2,37690,0,0.00,2,2,0,2,30051,50000,6277,37122,0,0,0,0,0.00,0.00,0.00,0.00
2016-05-16 00:30:00,2,36949,0,0.00,2,2,0,2,20859,50000,9550,36989,0,0,0,0,0.00,0.00,0.00,0.00
2016-05-16 00:40:00,2,32945,0,0.00,2,2,0,2,23268,41266,4829,32648,0,0,0,0,0.00,0.00,0.00,0.00
2016-05-16 00:50:00,2,33535,0,0.00,2,2,0,2,18369,50000,12424,29370,0,0,0,0,0.00,0.00,0.00,0.00
2016-05-16 01:00:00,2,38133,0,0.00,2,2,0,2,24382,50000,9731,38886,0,0,0,0,0.00,0.00,0.00,0.00
2016-05-16 01:10:00,2,33876,0,0.00,2,2,0,2,23258,50000,10092,29946,0,0,0,0,0.00,0.00,0.00,0.00
2016-05-16 01:20:00,2,39116,0,0.00,2,2,0,2,21228,50000,10254,40298,0,0,0,0,0.00,0.00,0.00,0.00
2016-05-16 01:30:00,2,36339,0,0.00,2,2,0,2,16027,50000,11185,39518,0,0,0,0,0.00,0.00,0.00,0.00
2016-05-16 01:40:00,2,41760,0,0.00,2,2,0,2,29869,50000,6813,42753,0,0,0,0,0.00,0.00,0.00,0.00
2016-05-16 01:50:00,2,39705,0,0.00,2,2,0,2,28427,50000,8126,39185,0,0,0,0,0.00,0.00,0.00,0.00
2016-05-16 02:00:00,2,36754,0,0.00,2,2,0,2,22507,50000,9342,34818,0,0,0,0,0.00,0.00,0.00,0.00
2016-05-16 02:10:00,2,36466,0,0.00,2,2,0,2,24192,50000,7471,34342,0,0,0,0,0.00,0.00,0.00,0.00
2016-05-16 02:20:00,2,38538,0,0.00,2,2,0,2,22531,44981,6247,38688,0,0,0,0,0.00,0.00,0.00,0.00
2016-05-16 02:30:00,2,37014,0,0.00,2,2,0,2,27002,48814,7497,34665,0,0,0,0,0.00,0.00,0.00,0.00
2016-05-16 02:40:00,2,33706,0,0.00,2,2,0,2,27479,40920,3736,32420,0,0,0,0,0.00,0.00,0.00,0.00
2016-05-16 02:50:00,2,32314,0,0.00,2,2,0,2,20070,46660,7798,31200,0,0,0,0,0.00,0.00,0.00,0.00
2016-05-16 03:00:00,2,40965,0,0.00,2,2,0,2,29925,50000,7167,44285,0,0,0,0,0.00,0.00,0.00,0.00
2016-05-16 03:10:00,2,38717,0,0.00,2,2,0,2,25588,50000,11112,39865,0,0,0,0,0.00,0.00,0.00,0.00
2016-05-16 03:20:00,2,37634,0,0.00,2,2,0,2,27171,50000,7343,37000,0,0,0,0,0.00,0.00,0.00,0.00
2016-05-16 03:30:00,2,47641,0,0.00,2,2,0,2,41740,50000,3448,50000,0,0,0,0,0.00,0.00,0.00,0.00
2016-05-16 03:40:00,2,39316,0,0.00,2,2,0,2,25165,48907,6877,40220,0,0,0,0,0.00,0.00,0.00,0.00
2016-05-16 03:50:00,2,44319,0,0.00,2,2,0,2,35184,50000,5494,45470,0,0,0,0,0.00,0.00,0.00,0.00
2016-05-16 04:00:00,2,39010,0,0.00,2,2,0,2,30873,50000,6654,37352,0,0,0,0,0.00,0.00,0.00,0.00
2016-05-16 04:10:00,2,37282,0,0.00,2,2,0,2,23391,50000,7753,40196,0,0,0,0,0.00,0.00,0.00,0.00
2016-05-16 04:20:00,2,40333,0,0.00,2,2,0,2,26314,50000,8451,41876,0,0,0,0,0.00,0.00,0.00,0.00
2016-05-16 04:30:00,2,42097,0,0.00,2,2,0,2,32579,50000,6040,42353,0,0,0,0,0.00,0.00,0.00,0.00
2016-05-16 04:40:00,2,39740,0,0.00,2,2,0,2,26616,50000,6653,40036,0,0,0,0,0.00,0.00,0.00,0.00
2016-05-16 04:50:00,2,44148,0,0.00,2,2,0,2,35296,50000,5489,44652,0,0,0,0,0.00,0.00,0.00,0.00
2016-05-16 05:00:00,2,35011,0,0.00,2,2,0,2,20913,47878,8428,34974,0,0,0,0,0.00,0.00,0.00,0.00
2016-05-16 05:10:00,2,39872,0,0.00,2,2,0,2,32644,49441,6158,38408,0,0,0,0,0.00,0.00,0.00,0.00
2016-05-16 05:20:00,2,42761,0,0.00,2,2,0,2,34120,50000,5803,44312,0,0,0,0,0.00,0.00,0.00,0.00
2016-05-16 05:30:00,2,36428,0,0.00,2,2,0,2,29296,41793,4608,37748,0,0,0,0,0.00,0.00,0.00,0.00
2016-05-16 05:40:00,2,46558,0,0.00,2,2,0,2,38953,50000,3534,48037,0,0,0,0,0.00,0.00,0.00,0.00
2016-05-16 05:50:00,2,40459,0,0.00,2,2,0,2,26585,50000,7901,42676,0,0,0,0,0.00,0.00,0.00,0.00
2016-05-16 06:00:00,2,35196,0,0.00,2,2,0,2,25580,40988,5156,36043,0,0,0,0,0.00,0.00,0.00,0.00
2016-05-16 06:10:00,2,43355,0,0.00,2,2,0,2,30445,50000,6041,43976,0,0,0,0,0.00,0.00,0.00,0.00
2016-05-16 06:20:00,2,44388,0,0.00,2,2,0,2,33589,50000,5946,46967,0,0,0,0,0.00,0.00,0.00,0.00
2016-05-16 06:30:00,2,38292,0,0.00,2,2,0,2,30609,48336,6256,36649,0,0,0,0,0.00,0.00,0.00,0.00
2016-05-16 06:40:00,2,39211,0,0.00,2,2,0,2,25527,50000,8003,40142,0,0,0,0,0.00,0.00,0.00,0.00
2016-05-16 06:50:00,2,44430,0,0.00,2,2,0,2,38758,50000,3104,44372,0,0,0,0,0.00,0.00,0.00,0.00
2016-05-16 07:00:00,2,49028,0,0.00,2,2,0,2,44427,50000,1678,50000,0,0,0,0,0.00,0.00,0.00,0.00
2016-05-16 07:10:00,2,40732,0,0.00,2,2,0,2,26870,50000,6457,41175,0,0,0,0,0.00,0.00,0.00,0.00
2016-05-16 07:20:00,2,43005,0,0.00,2,2,0,2,30396,49658,6296,44566,0,0,0,0,0.00,0.00,0.00,0.00
2016-05-16 07:30:00,2,44899,0,0.00,2,2,0,2,38254,50000,3604,45633,0,0,0,0,0.00,0.00,0.00,0.00
2016-05-16 07:40:00,2,43912,0,0.00,2,2,0,2,32869,50000,5853,45037,0,0,0,0,0.00,0.00,0.00,0.00
2016-05-16 07:50:00,2,48501,0,0.00,2,2,0,2,39374,50000,3144,50000,0,0,0,0,0.00,0.00,0.00,0.00
2016-05-16 08:00:00,2,24893,57,0.07,2,2,0,2,13167,47696,11311,21974,0,71,28,71,0.00,0.25,0.07,0.05
2016-05-16 08:10:00,2,5881,71,0.69,2,2,0,2,3289,13107,2899,4846,71,71,0,71,0.15,1.25,0.31,0.68
2016-05-16 08:20:00,2,3437,71,0.68,2,2,0,2,2797,4284,419,3476,71,71,0,71,0.30,0.90,0.19,0.73
2016-05-16 08:30:00,2,3008,71,1.52,2,2,0,2,2464,4122,478,2888,71,71,0,71,0.40,2.40,0.68,1.50
2016-05-16 08:40:00,2,3565,71,1.70,2,2,0,2,2898,4192,407,3485,71,71,0,71,1.25,2.30,0.30,1.70
2016-05-16 08:50:00,2,2716,71,3.01,2,2,0,2,1688,6237,1316,2256,71,71,0,71,0.45,5.75,1.50,3.30
2016-05-16 09:00:00,2,1558,71,5.36,2,2,0,2,1241,2285,382,1350,71,71,0,71,2.95,7.25,1.33,5.62
2016-05-16 09:10:00,2,1420,71,5.14,2,2,0,2,1205,1880,232,1337,71,71,0,71,2.95,6.25,1.10,5.67
2016-05-16 09:20:00,2,2165,71,3.07,2,2,0,2,1454,2918,521,2125,71,71,0,71,1.25,6.75,1.63,2.53
2016-05-16 09:30:00,2,2948,71,1.35,2,2,0,2,2392,3421,332,2850,71,71,0,71,1.00,1.70,0.22,1.38
2016-05-16 09:40:00,2,4134,71,1.14,2,2,0,2,3604,5052,425,4064,71,71,0,71,0.55,2.10,0.41,1.02
2016-05-16 09:50:00,2,3675,71,0.76,2,2,0,2,3075,4240,310,3658,71,71,0,71,0.40,1.50,0.30,0.65
2016-05-16 10:00:00,2,3852,71,0.57,2,2,0,2,2735,5788,973,3425,71,71,0,71,0.20,0.95,0.20,0.55
2016-05-16 10:10:00,2,7465,71,0.40,2,2,0,2,6338,9026,810,7461,71,71,0,71,0.10,1.00,0.26,0.30
2016-05-16 10:20:00,2,17456,71,0.21,2,2,0,2,8066,24033,4595,18544,71,71,0,71,0.00,0.90,0.28,0.08
2016-05-16 10:30:00,2,21414,73,0.11,2,2,0,2,17892,30839,3712,20080,71,77,3,71,0.00,0.20,0.07,0.10
2016-05-16 10:40:00,2,22606,74,0.07,2,2,0,2,16841,28165,3394,23155,71,77,3,74,0.00,0.30,0.09,0.05
2016-05-16 10:50:00,2,33575,77,0.03,2,2,0,2,24492,42728,5536,33370,77,77,0,77,0.00,0.10,0.03,0.00
2016-05-16 11:00:00,2,37426,23,0.00,2,2,0,2,26477,46261,6911,38538,0,77,35,0,0.00,0.00,0.00,0.00
2016-05-16 11:10:00,2,34382,0,0.00,2,2,0,2,28120,41683,3646,33160,0,0,0,0,0.00,0.00,0.00,0.00
2016-05-16 11:20:00,2,31987,0,0.00,2,2,0,2,17040,48267,10013,28506,0,0,0,0,0.00,0.00,0.00,0.00
2016-05-16 11:30:00,2,30521,0,0.00,2,2,0,2,20530,41456,6534,29914,0,0,0,0,0.00,0.00,0.00,0.00
2016-05-16 11:40:00,2,38404,0,0.00,2,2,0,2,33062,45388,3302,37886,0,0,0,0,0.00,0.00,0.00,0.00
2016-05-16 11:50:00,2,42001,0,0.00,2,2,0,2,35972,48814,4708,40226,0,0,0,0,0.00,0.00,0.00,0.00
2016-05-16 12:00:00,2,45796,0,0.00,2,2,0,2,32731,50000,5991,49286,0,0,0,0,0.00,0.00,0.00,0.00
2016-05-16 12:10:00,2,47364,0,0.00,2,2,0,2,39775,50000,3387,49003,0,0,0,0,0.00,0.00,0.00,0.00
2016-05-16 12:20:00,2,47157,0,0.00,2,2,0,2,40564,50000,3018,47522,0,0,0,0,0.00,0.00,0.00,0.00
2016-05-16 12:30:00,2,47391,0,0.00,2,2,0,2,36759,50000,4529,50000,0,0,0,0,0.00,0.00,0.00,0.00
2016-05-16 12:40:00,2,49071,0,0.00,2,2,0,2,47928,50000,742,49018,0,0,0,0,0.00,0.00,0.00,0.00
2016-05-16 12:50:00,2,49857,0,0.00,2,2,0,2,49149,50000,293,50000,0,0,0,0,0.00,0.00,0.00,0.00
2016-05-16 13:00:00,2,50000,0,0.00,2,2,0,2,50000,50000,0,50000,0,0,0,0,0.00,0.00,0.00,0.00
2016-05-16 13:10:00,2,49297,0,0.00,2,2,0,2,44675,50000,1571,50000,0,0,0,0,0.00,0.00,0.00,0.00
2016-05-16 13:20:00,2,50000,0,0.00,2,2,0,2,50000,50000,0,50000,0,0,0,0,0.00,0.00,0.00,0.00
2016-05-16 13:30:00,2,50000,0,0.00,2,2,0,2,50000,50000,0,50000,0,0,0,0,0.00,0.00,0.00,0.00
2016-05-16 13:40:00,2,49887,0,0.00,2,2,0,2,48868,50000,340,50000,0,0,0,0,0.00,0.00,0.00,0.00
2016-05-16 13:50:00,2,49295,0,0.00,2,2,0,2,46762,50000,1243,50000,0,0,0,0,0.00,0.00,0.00,0.00
2016-05-16 14:00:00,2,49402,0,0.00,2,2,0,2,47088,50000,975,50000,0,0,0,0,0.00,0.00,0.00,0.00
2016-05-16 14:10:00,2,49490,0,0.00,2,2,0,2,47699,50000,883,50000,0,0,0,0,0.00,0.00,0.00,0.00
2016-05-16 14:20:00,2,49592,0,0.00,2,2,0,2,48582,50000,571,50000,0,0,0,0,0.00,0.00,0.00,0.00
2016-05-16 14:30:00,2,49956,0,0.00,2,2,0,2,49561,50000,132,50000,0,0,0,0,0.00,0.00,0.00,0.00
2016-05-16 14:40:00,2,49736,0,0.00,2,2,0,2,48912,50000,417,50000,0,0,0,0,0.00,0.00,0.00,0.00
2016-05-16 14:50:00,2,50000,0,0.00,2,2,0,2,50000,50000,0,50000,0,0,0,0,0.00,0.00,0.00,0.00
2016-05-16 15:00:00,2,49843,0,0.00,2,2,0,2,48837,50000,356,50000,0,0,0,0,0.00,0.00,0.00,0.00
2016-05-16 15:10:00,2,50000,0,0.00,2,2,0,2,50000,50000,0,50000,0,0,0,0,0.00,0.00,0.00,0.00
2016-05-16 15:20:00,2,48436,0,0.00,2,2,0,2,43644,50000,1962,49252,0,0,0,0,0.00,0.00,0.00,0.00
2016-05-16 15:30:00,2,45254,0,0.00,2,2,0,2,33686,50000,5166,46604,0,0,0,0,0.00,0.00,0.00,0.00
2016-05-16 15:40:00,2,47973,0,0.00,2,2,0,2,43248,50000,2311,48693,0,0,0,0,0.00,0.00,0.00,0.00
2016-05-16 15:50:00,2,49900,0,0.00,2,2,0,2,49009,50000,297,50000,0,0,0,0,0.00,0.00,0.00,0.00
2016-05-16 16:00:00,2,50000,0,0.00,2,2,0,2,50000,50000,0,50000,0,0,0,0,0.00,0.00,0.00,0.00
2016-05-16 16:10:00,2,50000,0,0.00,2,2,0,2,50000,50000,0,50000,0,0,0,0,0.00,0.00,0.00,0.00
2016-05-16 16:20:00,2,49576,0,0.00,2,2,0,2,46247,50000,1119,50000,0,0,0,0,0.00,0.00,0.00,0.00
2016-05-16 16:30:00,2,48053,0,0.00,2,2,0,2,38355,50000,3515,49882,0,0,0,0,0.00,0.00,0.00,0.00
2016-05-16 16:40:00,2,49807,0,0.00,2,2,0,2,48959,50000,388,50000,0,0,0,0,0.00,0.00,0.00,0.00
2016-05-16 16:50:00,2,47742,0,0.00,2,2,0,2,40752,50000,3316,49492,0,0,0,0,0.00,0.00,0.00,0.00
2016-05-16 17:00:00,2,46941,0,0.00,2,2,0,2,39339,50000,3566,48086,0,0,0,0,0.00,0.00,0.00,0.00
2016-05-16 17:10:00,2,49054,0,0.00,2,2,0,2,45187,50000,1517,50000,0,0,0,0,0.00,0.00,0.00,0.00
2016-05-16 17:20:00,2,49885,0,0.00,2,2,0,2,48852,50000,344,50000,0,0,0,0,0.00,0.00,0.00,0.00
2016-05-16 17:30:00,2,49513,0,0.00,2,2,0,2,46765,50000,1038,50000,0,0,0,0,0.00,0.00,0.00,0.00
2016-05-16 17:40:00,2,49878,0,0.00,2,2,0,2,48779,50000,366,50000,0,0,0,0,0.00,0.00,0.00,0.00
2016-05-16 17:50:00,2,50000,0,0.00,2,2,0,2,50000,50000,0,50000,0,0,0,0,0.00,0.00,0.00,0.00
2016-05-16 18:00:00,2,49966,0,0.00,2,2,0,2,49657,50000,103,50000,0,0,0,0,0.00,0.00,0.00,0.00
2016-05-16 18:10:00,2,49486,0,0.00,2,2,0,2,45466,50000,1352,50000,0,0,0,0,0.00,0.00,0.00,0.00
2016-05-16 18:20:00,2,49535,0,0.00,2,2,0,2,47412,50000,937,50000,0,0,0,0,0.00,0.00,0.00,0.00
2016-05-16 18:30:00,2,49466,0,0.00,2,2,0,2,47413,50000,840,50000,0,0,0,0,0.00,0.00,0.00,0.00
2016-05-16 18:40:00,2,50000,0,0.00,2,2,0,2,50000,50000,0,50000,0,0,0,0,0.00,0.00,0.00,0.00
2016-05-16 18:50:00,2,48869,0,0.00,2,2,0,2,42361,50000,2413,50000,0,0,0,0,0.00,0.00,0.00,0.00
2016-05-16 19:00:00,2,49867,0,0.00,2,2,0,2,49392,50000,213,50000,0,0,0,0,0.00,0.00,0.00,0.00
2016-05-16 19:10:00,2,49498,0,0.00,2,2,0,2,46229,50000,1151,50000,0,0,0,0,0.00,0.00,0.00,0.00
2016-05-16 19:20:00,2,50000,0,0.00,2,2,0,2,50000,50000,0,50000,0,0,0,0,0.00,0.00,0.00,0.00
2016-05-16 19:30:00,2,48399,0,0.00,2,2,0,2,39354,50000,3107,49610,0,0,0,0,0.00,0.00,0.00,0.00
2016-05-16 19:40:00,2,48549,0,0.00,2,2,0,2,44010,50000,2035,49996,0,0,0,0,0.00,0.00,0.00,0.00
2016-05-16 19:50:00,2,49599,0,0.00,2,2,0,2,47771,50000,692,50000,0,0,0,0,0.00,0.00,0.00,0.00
2016-05-16 20:00:00,2,47336,0,0.00,2,2,0,2,37627,50000,3624,48638,0,0,0,0,0.00,0.00,0.00,0.00
2016-05-16 20:10:00,2,48863,0,0.00,2,2,0,2,45098,50000,1861,50000,0,0,0,0,0.00,0.00,0.00,0.00
2016-05-16 20:20:00,2,48309,0,0.00,2,2,0,2,41004,50000,3319,50000,0,0,0,0,0.00,0.00,0.00,0.00
2016-05-16 20:30:00,2,49421,0,0.00,2,2,0,2,47122,50000,972,50000,0,0,0,0,0.00,0.00,0.00,0.00
2016-05-16 20:40:00,2,47972,0,0.00,2,2,0,2,45354,50000,1569,48140,0,0,0,0,0.00,0.00,0.00,0.00
2016-05-16 20:50:00,2,48965,0,0.00,2,2,0,2,45046,50000,1946,50000,0,0,0,0,0.00,0.00,0.00,0.00
2016-05-16 21:00:00,2,48150,0,0.00,2,2,0,2,40548,50000,2936,50000,0,0,0,0,0.00,0.00,0.00,0.00
2016-05-16 21:10:00,2,46752,0,0.00,2,2,0,2,37636,50000,4225,49114,0,0,0,0,0.00,0.00,0.00,0.00
2016-05-16 21:20:00,2,49057,0,0.00,2,2,0,2,43502,50000,1967,50000,0,0,0,0,0.00,0.00,0.00,0.00
2016-05-16 21:30:00,2,44719,0,0.00,2,2,0,2,34805,50000,5135,46400,0,0,0,0,0.00,0.00,0.00,0.00
2016-05-16 21:40:00,2,46590,0,0.00,2,2,0,2,34902,50000,4279,47500,0,0,0,0,0.00,0.00,0.00,0.00
2016-05-16 21:50:00,2,46274,0,0.00,2,2,0,2,34960,50000,4281,46649,0,0,0,0,0.00,0.00,0.00,0.00
2016-05-16 22:00:00,2,42240,0,0.00,2,2,0,2,34656,50000,5699,42252,0,0,0,0,0.00,0.00,0.00,0.00
2016-05-16 22:10:00,2,45847,0,0.00,2,2,0,2,35845,50000,4989,47094,0,0,0,0,0.00,0.00,0.00,0.00
2016-05-16 22:20:00,2,43182,0,0.00,2,2,0,2,37536,50000,4521,42460,0,0,0,0,0.00,0.00,0.00,0.00
2016-05-16 22:30:00,2,36834,0,0.00,2,2,0,2,30792,48774,5135,35538,0,0,0,0,0.00,0.00,0.00,0.00
2016-05-16 22:40:00,2,44920,0,0.00,2,2,0,2,34760,50000,5454,47209,0,0,0,0,0.00,0.00,0.00,0.00
2016-05-16 22:50:00,2,39601,0,0.00,2,2,0,2,29447,49918,5252,39728,0,0,0,0,0.00,0.00,0.00,0.00
2016-05-16 23:00:00,2,36467,0,0.00,2,2,0,2,30639,47867,5081,35469,0,0,0,0,0.00,0.00,0.00,0.00
2016-05-16 23:10:00,2,29747,0,0.00,2,2,0,2,20648,39297,5803,30440,0,0,0,0,0.00,0.00,0.00,0.00
2016-05-16 23:20:00,2,7756,65,0.68,2,2,0,2,4200,21360,5661,5014,40,71,12,71,0.10,1.35,0.39,0.65
2016-05-16 23:30:00,2,3377,71,0.98,2,2,0,2,2684,4064,374,3365,71,71,0,71,0.55,1.65,0.35,0.90
2016-05-16 23:40:00,2,2168,71,2.29,2,2,0,2,1647,2677,354,2132,71,71,0,71,1.10,3.65,0.72,2.10
2016-05-16 23:50:00,2,3884,71,1.07,2,2,0,2,2156,6698,1488,3546,71,71,0,71,0.20,2.70,0.81,0.82
